Location: Casteau
(50.5142°N, 4.0161°E)
Time: 22:09:52
(UTC+00:00)

Transit 2A - Pass Details

Date: 04 August 2021
Orbit: 594 x 964 km, 66.7° (Epoch: 26 September)

Event Time Altitude Azimuth Distance (km) Brightness Sun altitude
Rises 13:53:51 0° 320° (NW) 3,225 9.2 48.4°
Reaches altitude 10° 13:56:10 10° 317° (NW) 2,352 8.7 48.1°
Maximum altitude 14:01:32 61° 239° (WSW) 953 8.6 47.5°
Drops below altitude 10° 14:07:24 10° 160° (SSE) 2,574 9.0 46.8°
Sets 14:10:02 0° 157° (SSE) 3,553 9.6 46.4°
